Regional Weather Roundup
Issued by NWS

Home | Current Version | Previous Version | Graphics & Text | Print | Product List | Glossary On
Versions: 1 2 3 4 5 6 7 8 9 10 11 12 13 14 15 16 17 18 19 20 21 22 23 24 25 26 27 28 29 30 31 32 33 34 35 36 37 38 39 40 41 42 43 44 45 46 47 48 49 50
000
ASUS45 KBOU 052107
RWRCO

WEATHER ROUNDUP FOR COLORADO
NATIONAL WEATHER SERVICE DENVER/BOULDER CO
200 PM MST FRI FEB 05 2016

NOTE: "FAIR" INDICATES FEW OR NO CLOUDS BELOW 12000 FEET WITH NO
SIGNIFICANT WEATHER AND/OR OBSTRUCTIONS TO VISIBILITY.

COZ001>005-013-030-031-052200-
...NORTHWEST COLORADO...

CITY           SKY/WX    TMP DP  RH WIND       PRES   REMARKS
CRAIG          CLOUDY    21  14  74 E7        30.45F WCI  12
HAYDEN         CLOUDY    19  12  73 CALM      30.44S
MEEKER         MOSUNNY   25  16  68 CALM      30.44F
MOUNT WERNER   NOT AVBL
STEAMBOAT SPGS CLOUDY    22  13  68 W3        30.42S
WALDEN         CLOUDY    19   9  63 S12       30.33R WCI   7
$$

COZ006>008-011-052200-
...WEST CENTRAL VALLEYS...

CITY           SKY/WX    TMP DP  RH WIND       PRES   REMARKS
GRAND JUNCTION SUNNY     24  15  68 NE3       30.54F
MONTROSE       SUNNY     25  12  58 VRB3      30.50F
EAGLE          MOSUNNY   27   9  46 CALM      30.43F
RIFLE          PTSUNNY   23  12  62 SE3       30.49F
DELTA          SUNNY     28  15  56 CALM      30.52F
NUCLA          SUNNY     27  16  63 NW3       30.50F
$$

COZ017>023-064>068-052200-
...SOUTHWEST COLORADO...

CITY           SKY/WX    TMP DP  RH WIND       PRES   REMARKS
DURANGO        SUNNY     25  10  53 E7        30.36F WCI  17
CORTEZ         SUNNY     34  16  47 W13G23    30.40F WCI  25
PAGOSA SPRINGS SUNNY     29   8  41 SW14      30.31S WCI  18
TELLURIDE      SUNNY     24   2  39 SW7       30.34F WCI  16
WOLF CREEK PAS SUNNY     12  -8  40 N14G24    30.26S WCI  -3
$$

COZ009-010-012-014-032>034-037-058>063-052200-
...CENTRAL COLORADO...

CITY           SKY/WX    TMP DP  RH WIND       PRES   REMARKS
ASPEN          MOSUNNY   20   7  57 CALM      30.36F
BUENA VISTA    SUNNY     27   5  40 NW31G38   30.25S WCI  10
COPPER MTN     CLOUDY     9   0  66 NW12G18   30.22R WCI  -6
BERTHOUD PASS  CLOUDY     0  -9  65 N18G36    30.17R WCI -22
COTTONWOOD PAS SUNNY     28  -6  22 SW12G22   30.23S WCI  18
GUNNISON       SUNNY      3  -8  60 CALM      30.43F
KREMMLING      FLURRIES  14   5  67 CALM      30.41F
LEADVILLE      MOSUNNY   16   2  54 NW9G20    30.26S WCI   4
SALIDA         SUNNY     32   3  28 N3        30.35S
SUNLIGHT       LGT SNOW N/A N/A N/A NW3         N/A
WILKERSON PASS SUNNY     14   0  52 NW7G18    30.19S WCI   4
$$

COZ069>075-052200-
...SAN LUIS VALLEY/SANGRE DE CRISTO MOUNTAINS...

CITY           SKY/WX    TMP DP  RH WIND       PRES   REMARKS
ALAMOSA        SUNNY     30   1  29 NW8       30.28F WCI  22
LA VETA PASS   SUNNY     23   3  42 MISG      30.21S
SAGUACHE       SUNNY     28   7  40 NW20      30.29F WCI  15
$$

COZ035-036-038>040-052200-
...NORTHERN COLORADO FRONT RANGE...

CITY           SKY/WX    TMP DP  RH WIND       PRES   REMARKS
DENVER INTL AP MOSUNNY   34  12  40 NE7       30.26F WCI  28
DMNS CITY PARK   N/A     36   8  31 E16       30.25F
AURORA         MOSUNNY   33  13  43 NE9       30.26F WCI  25
FRONT RANGE AP MOSUNNY   32  10  40 MISG      30.27F
ERIE MUNI ARPT SUNNY     36   9  32 E7        30.26F
BOULDER MUN AP SUNNY     37  10  32 E7        30.25F
CENTENNIAL     MOSUNNY   33   9  36 E8        30.25F WCI  26
BROOMFIELD     MOSUNNY   36  12  38 NE6       30.26F
FORT COLLINS   SUNNY     36  18  48 SE8       30.27F
LONGMONT       SUNNY     41  13  32 E7        30.28F
$$

COZ041-046-047-076>085-087-088-052200-
...PIKES PEAK/PALMER DIVIDE AND SOUTHERN FOOTHILLS...

CITY           SKY/WX    TMP DP  RH WIND       PRES   REMARKS
COLO. SPRINGS  MOSUNNY   32   8  36 VRB3      30.27F
A. F. ACADEMY  SUNNY     30   9  42 NE8       30.24F WCI  22
SCHRIEVER AFB  FAIR      30   8  40 NW2       30.27F
ELLICOTT       NOT AVBL
FALCON         SUNNY     31   6  35 N8        30.25F WCI  23
FORT CARSON    SUNNY     31  12  45 S7        30.27F WCI  25
LIMON          SUNNY     28  15  58 NW12      30.27F WCI  18
MONUMENT HILL  SUNNY     28  10  47 CALM      30.25F
TRINIDAD       SUNNY     35  17  47 N15       30.29F WCI  25
$$

COZ042>045-048>051-090-091-052200-
...NORTHEAST COLORADO...

CITY           SKY/WX    TMP DP  RH WIND       PRES   REMARKS
GREELEY ARPT   SUNNY     34  18  51 NW3       30.28S
AKRON          SUNNY     31  20  63 NW13      30.25F WCI  21
BURLINGTON     SUNNY     33  19  56 NW17      30.26F WCI  22
WRAY           SUNNY     38  22  54 NW17      30.25F
STERLING       SUNNY     34  23  64 NW17G24   30.26S WCI  23
HOLYOKE        SUNNY     37  23  56 NW15G23   30.24S
FORT MORGAN    SUNNY     37  18  47 NW14      30.28F
$$

COZ086-089-092>099-052200-
...SOUTHEAST COLORADO...

CITY           SKY/WX    TMP DP  RH WIND       PRES   REMARKS
PUEBLO         SUNNY     38  13  35 E7        30.31F
LA JUNTA       SUNNY     39  20  46 N10       30.33F
LAMAR          SUNNY     44  20  38 N21       30.29F
SPRINGFIELD      N/A     39  22  50 N28G35    30.27S
$$



USA.gov is the U.S. government's official web portal to all federal, state and local government web resources and services.